Wautoma, WI

9:54 AM CST on February 24, 2017 (GMT -0600)
Wautoma

Weather History for KY50 - August, 2013

Change the Weather History Date:

Friday, August 16, 2013

  Actual Average (KPCZ) Record (KPCZ)
Temperature  
Mean Temperature 66 °F -  
Max Temperature 82 °F 81 °F 94 °F (1955)
Min Temperature 50 °F 58 °F 43 °F (1979)
Growing Degree Days 16 (Base 50)    
Moisture  
Dew Point 52 °F    
Average Humidity 67    
Maximum Humidity 100    
Minimum Humidity 30    
Precipitation  
Precipitation 0.00 in - - ()
Sea Level Pressure  
Sea Level Pressure 30.16 in    
Wind  
Wind Speed 2 mph (WSW)    
Max Wind Speed 8 mph    
Max Gust Speed -    
Visibility 10 miles    
Events      
Averages and records for this station are not official NWS values.
T = Trace of Precipitation, MM = Missing Value Source: NWS Daily Summary

Daily Weather History Graph

Daily Weather History Graph

Search for Another Location

Airport or City:

Trip Planner

Search our weather history database for the weather conditions in past years. The results will help you decide how hot, cold, wet, or windy it might be!

Date:

Astronomy

Aug. 16, 2013 Rise Set
Actual Time 6:02 AM CDT 7:59 PM CDT
Civil Twilight 5:31 AM CDT 8:30 PM CDT
Nautical Twilight 4:52 AM CDT 9:08 PM CDT
Astronomical Twilight 4:11 AM CDT 9:50 PM CDT
Moon 4:22 PM CDT (8/16) 1:01 AM CDT (8/16)
Length of Visible Light 14h 59m
Length of Day
13h 57m
Waxing Gibbous, 75% of the Moon is Illuminated
Aug 16
Waxing Gibbous
Aug 20
Full
Aug 28
Last Quarter
Sep 5
New
Sep 12
First Quarter

Hourly Weather History & Observations

Time (CDT) Temp. Dew Point Humidity Pressure Visibility Wind Dir Wind Speed Gust Speed Precip Events Conditions
12:56 AM 52.9 °F 52.9 °F 100% 30.13 in 10.0 mi Calm Calm - N/A   Clear
1:56 AM 50.9 °F 50.9 °F 100% 30.14 in 10.0 mi Calm Calm - N/A   Clear
2:56 AM 50.9 °F 50.9 °F 100% 30.13 in 10.0 mi Calm Calm - N/A   Mostly Cloudy
3:56 AM 54.0 °F 54.0 °F 100% 30.13 in 10.0 mi Calm Calm - N/A   Overcast
4:56 AM 54.0 °F 54.0 °F 100% 30.14 in 10.0 mi Calm Calm - N/A   Overcast
5:56 AM 55.9 °F 55.9 °F 100% 30.15 in 10.0 mi Calm Calm - N/A   Overcast
6:56 AM 54.9 °F 54.9 °F 100% 30.17 in 10.0 mi Calm Calm - N/A   Clear
7:56 AM 63.9 °F 54.0 °F 70% 30.18 in 10.0 mi Calm Calm - N/A   Clear
8:56 AM 70.9 °F 52.9 °F 53% 30.18 in 10.0 mi NNW 6.9 mph - N/A   Clear
9:56 AM 73.9 °F 54.9 °F 51% 30.18 in 10.0 mi North 5.8 mph - N/A   Clear
10:56 AM 77.0 °F 52.9 °F 43% 30.18 in 10.0 mi Calm Calm - N/A   Clear
11:56 AM 77.0 °F 47.8 °F 36% 30.18 in 10.0 mi SE 3.5 mph - N/A   Mostly Cloudy
12:56 PM 80.6 °F 50.0 °F 34% 30.18 in 10.0 mi WSW 8.1 mph - N/A   Mostly Cloudy
1:56 PM 81.0 °F 47.8 °F 31% 30.16 in 10.0 mi Variable 4.6 mph - N/A   Partly Cloudy
2:56 PM 79.0 °F 46.9 °F 32% 30.16 in 10.0 mi WNW 3.5 mph - N/A   Mostly Cloudy
3:56 PM 81.9 °F 47.8 °F 30% 30.15 in 10.0 mi SW 5.8 mph - N/A   Partly Cloudy
4:56 PM 81.9 °F 47.8 °F 30% 30.14 in 10.0 mi Variable 4.6 mph - N/A   Mostly Cloudy
5:56 PM 81.9 °F 47.8 °F 30% 30.15 in 10.0 mi SW 6.9 mph - N/A   Mostly Cloudy
6:56 PM 79.0 °F 52.0 °F 39% 30.15 in 10.0 mi SW 4.6 mph - N/A   Mostly Cloudy
7:56 PM 70.9 °F 56.8 °F 61% 30.16 in 10.0 mi Calm Calm - N/A   Scattered Clouds
8:56 PM 63.9 °F 56.8 °F 78% 30.17 in 10.0 mi Calm Calm - N/A   Clear
9:56 PM 59.9 °F 56.8 °F 90% 30.18 in 10.0 mi Calm Calm - N/A   Clear
10:56 PM 56.8 °F 56.8 °F 100% 30.19 in 10.0 mi Calm Calm - N/A   Clear
11:56 PM 55.9 °F 55.9 °F 100% 30.19 in 10.0 mi SE 3.5 mph - N/A   Clear